User: anonymous   Login
Location: PSU-Greenbush Astrophysical Observatory
(37.5140°N, 94.9880°W)
Time: 15:18:27
(UTC-06:00)
Language:

XW-2D - Orbit

View from above orbital plane
View from above orbital plane
View from above satellite
View from above satellite

Ground track
Ground track

The orbit data is extracted from the following two-line orbital elements,

1 40907U 15049J   20052.57342589 +.00000498 +00000-0 +29208-4 0  9997
2 40907 097.4735 055.3598 0015610 059.5549 095.7634 15.16149291244566
Epoch (UTC): 21 February 2020 13:45:43
Eccentricity: 0.0015610
inclination: 97.4735°
perigee height: 507 km
apogee height: 528 km
right ascension of ascending node: 55.3598°
argument of perigee: 59.5549°
revolutions per day: 15.16149291
mean anomaly at epoch: 95.7634°
orbit number at epoch: 24456

The dashed part of the orbit path shows where the satellite is in the earth's shadow,  

DLR